TimeCDT,TemperatureF,Dew PointF,Humidity,Sea Level PressureIn,VisibilityMPH,Wind Direction,Wind SpeedMPH,Gust SpeedMPH,PrecipitationIn,Events,Conditions,WindDirDegrees,DateUTC
12:15 AM,66.2,64.4,94,30.10,7.0,Calm,Calm,-,N/A,,Clear,0,2013-08-19 05:15:00
12:35 AM,65.5,63.1,92,30.11,7.0,Calm,Calm,-,N/A,,Clear,0,2013-08-19 05:35:00
12:55 AM,65.8,64.0,94,30.10,7.0,Calm,Calm,-,N/A,,Clear,0,2013-08-19 05:55:00
1:15 AM,64.9,63.1,94,30.10,7.0,Calm,Calm,-,N/A,,Clear,0,2013-08-19 06:15:00
1:35 AM,64.0,62.2,94,30.10,4.0,Calm,Calm,-,N/A,,Clear,0,2013-08-19 06:35:00
1:55 AM,63.5,61.9,94,30.10,3.0,Calm,Calm,-,N/A,,Clear,0,2013-08-19 06:55:00
2:15 AM,63.5,61.9,94,30.10,1.5,Calm,Calm,-,N/A,,Mist,0,2013-08-19 07:15:00
2:35 AM,63.0,61.5,95,30.10,2.5,Calm,Calm,-,N/A,,Clear,0,2013-08-19 07:35:00
2:55 AM,64.2,62.6,94,30.10,2.5,Calm,Calm,-,N/A,,Clear,0,2013-08-19 07:55:00
3:15 AM,63.1,61.7,95,30.10,1.0,Calm,Calm,-,N/A,,Mostly Cloudy,0,2013-08-19 08:15:00
3:35 AM,63.5,62.2,96,30.10,5.0,Calm,Calm,-,N/A,,Mostly Cloudy,0,2013-08-19 08:35:00
3:55 AM,63.0,61.7,96,30.10,7.0,Calm,Calm,-,N/A,,Overcast,0,2013-08-19 08:55:00
4:15 AM,63.5,62.1,95,30.10,0.8,Calm,Calm,-,N/A,,Mostly Cloudy,0,2013-08-19 09:15:00
4:35 AM,63.0,61.7,96,30.10,0.2,Calm,Calm,-,N/A,Fog,Fog,0,2013-08-19 09:35:00
4:55 AM,62.6,61.5,96,30.10,0.2,Calm,Calm,-,N/A,Fog,Fog,0,2013-08-19 09:55:00
5:15 AM,62.2,61.0,96,30.10,0.2,Calm,Calm,-,N/A,Fog,Fog,0,2013-08-19 10:15:00
5:35 AM,62.8,61.7,96,30.11,0.2,Calm,Calm,-,N/A,Fog,Fog,0,2013-08-19 10:35:00
5:55 AM,62.8,61.7,96,30.11,0.2,Calm,Calm,-,N/A,Fog,Fog,0,2013-08-19 10:55:00
6:15 AM,62.6,61.2,95,30.11,0.2,Calm,Calm,-,N/A,Fog,Fog,0,2013-08-19 11:15:00
6:35 AM,62.8,61.7,96,30.12,0.2,Calm,Calm,-,N/A,Fog,Fog,0,2013-08-19 11:35:00
6:55 AM,63.5,62.1,95,30.12,0.8,Calm,Calm,-,N/A,,Overcast,0,2013-08-19 11:55:00
7:15 AM,63.9,62.6,96,30.13,0.2,Calm,Calm,-,N/A,Fog,Fog,0,2013-08-19 12:15:00
7:35 AM,65.3,63.9,95,30.13,1.5,Calm,Calm,-,N/A,,Mostly Cloudy,0,2013-08-19 12:35:00
7:55 AM,66.2,64.8,95,30.13,1.8,Calm,Calm,-,N/A,,Mostly Cloudy,0,2013-08-19 12:55:00
8:15 AM,68.4,67.1,96,30.13,3.0,Calm,Calm,-,N/A,,Scattered Clouds,0,2013-08-19 13:15:00
8:35 AM,70.0,68.7,96,30.13,3.0,Calm,Calm,-,N/A,,Clear,0,2013-08-19 13:35:00
8:55 AM,71.4,70.0,95,30.13,5.0,Calm,Calm,-,N/A,,Clear,0,2013-08-19 13:55:00
9:15 AM,73.6,69.6,87,30.13,7.0,Calm,Calm,-,N/A,,Clear,0,2013-08-19 14:15:00
9:35 AM,76.1,69.1,79,30.13,10.0,Calm,Calm,-,N/A,,Clear,0,2013-08-19 14:35:00
9:55 AM,77.7,68.7,74,30.13,10.0,Calm,Calm,-,N/A,,Clear,0,2013-08-19 14:55:00
10:15 AM,79.0,68.4,70,30.14,10.0,North,3.5,-,N/A,,Clear,350,2013-08-19 15:15:00
10:35 AM,80.1,68.5,68,30.13,10.0,Calm,Calm,-,N/A,,Clear,0,2013-08-19 15:35:00
10:55 AM,81.7,67.8,63,30.13,10.0,Calm,Calm,-,N/A,,Clear,0,2013-08-19 15:55:00
11:15 AM,80.6,67.6,65,30.13,10.0,Calm,Calm,-,N/A,,Scattered Clouds,0,2013-08-19 16:15:00
11:35 AM,82.6,67.5,60,30.13,10.0,Calm,Calm,-,N/A,,Scattered Clouds,0,2013-08-19 16:35:00
11:55 AM,82.0,67.3,61,30.12,10.0,Calm,Calm,-,N/A,,Mostly Cloudy,0,2013-08-19 16:55:00
12:15 PM,82.4,67.3,60,30.12,10.0,Calm,Calm,-,N/A,,Scattered Clouds,0,2013-08-19 17:15:00
12:35 PM,82.8,65.7,56,30.11,10.0,Calm,Calm,-,N/A,,Mostly Cloudy,0,2013-08-19 17:35:00
12:55 PM,81.9,66.7,60,30.11,10.0,SSE,3.5,-,N/A,,Mostly Cloudy,150,2013-08-19 17:55:00
1:15 PM,83.3,66.0,56,30.10,10.0,SSE,3.5,-,N/A,,Scattered Clouds,160,2013-08-19 18:15:00
1:35 PM,84.6,66.4,54,30.10,10.0,ESE,5.8,-,N/A,,Mostly Cloudy,120,2013-08-19 18:35:00
1:55 PM,84.9,65.1,51,30.09,10.0,Calm,Calm,-,N/A,,Mostly Cloudy,0,2013-08-19 18:55:00
2:15 PM,85.1,65.7,52,30.09,10.0,South,3.5,-,N/A,,Scattered Clouds,190,2013-08-19 19:15:00
2:35 PM,85.5,63.7,48,30.09,10.0,Calm,Calm,-,N/A,,Scattered Clouds,0,2013-08-19 19:35:00
2:55 PM,85.6,63.9,48,30.08,10.0,SSE,4.6,-,N/A,,Scattered Clouds,150,2013-08-19 19:55:00
3:15 PM,86.7,64.6,48,30.08,10.0,SSE,4.6,-,N/A,,Clear,150,2013-08-19 20:15:00
3:35 PM,86.5,64.6,48,30.07,10.0,Calm,Calm,-,N/A,,Clear,0,2013-08-19 20:35:00
3:55 PM,83.7,65.8,55,30.07,10.0,Calm,Calm,-,N/A,,Clear,0,2013-08-19 20:55:00
4:15 PM,85.6,63.3,47,30.07,10.0,Calm,Calm,-,N/A,,Clear,0,2013-08-19 21:15:00
4:35 PM,85.5,64.2,49,30.06,10.0,Calm,Calm,-,N/A,,Clear,0,2013-08-19 21:35:00
4:55 PM,85.3,63.9,49,30.05,10.0,Calm,Calm,-,N/A,,Clear,0,2013-08-19 21:55:00
5:15 PM,85.1,63.3,48,30.05,10.0,Calm,Calm,-,N/A,,Clear,0,2013-08-19 22:15:00
5:35 PM,85.3,63.0,47,30.05,10.0,Calm,Calm,-,N/A,,Clear,0,2013-08-19 22:35:00
5:55 PM,84.9,63.1,48,30.05,10.0,Calm,Calm,-,N/A,,Clear,0,2013-08-19 22:55:00
6:15 PM,84.7,64.6,51,30.04,10.0,Calm,Calm,-,N/A,,Clear,0,2013-08-19 23:15:00
6:35 PM,82.6,67.8,61,30.04,10.0,Calm,Calm,-,N/A,,Clear,0,2013-08-19 23:35:00
6:55 PM,80.1,68.4,67,30.04,10.0,Calm,Calm,-,N/A,,Clear,0,2013-08-19 23:55:00
7:15 PM,79.2,68.7,70,30.04,10.0,Calm,Calm,-,N/A,,Clear,0,2013-08-20 00:15:00
7:35 PM,77.9,68.0,71,30.05,10.0,Calm,Calm,-,N/A,,Clear,0,2013-08-20 00:35:00
7:55 PM,76.6,69.1,77,30.05,10.0,Calm,Calm,-,N/A,,Scattered Clouds,0,2013-08-20 00:55:00
8:15 PM,74.7,69.8,85,30.05,10.0,Calm,Calm,-,N/A,,Scattered Clouds,0,2013-08-20 01:15:00
8:35 PM,73.2,70.0,90,30.06,10.0,Calm,Calm,-,N/A,,Clear,0,2013-08-20 01:35:00
8:55 PM,73.6,69.3,86,30.07,10.0,Calm,Calm,-,N/A,,Clear,0,2013-08-20 01:55:00
9:15 PM,72.1,68.2,87,30.07,10.0,Calm,Calm,-,N/A,,Clear,0,2013-08-20 02:15:00
9:35 PM,71.6,68.4,89,30.08,10.0,Calm,Calm,-,N/A,,Clear,0,2013-08-20 02:35:00
9:55 PM,70.7,68.2,92,30.08,7.0,Calm,Calm,-,N/A,,Clear,0,2013-08-20 02:55:00
10:15 PM,70.2,67.6,92,30.08,7.0,Calm,Calm,-,N/A,,Clear,0,2013-08-20 03:15:00
10:35 PM,69.4,67.3,93,30.08,5.0,Calm,Calm,-,N/A,,Clear,0,2013-08-20 03:35:00
10:55 PM,69.6,67.8,94,30.08,5.0,Calm,Calm,-,N/A,,Clear,0,2013-08-20 03:55:00
11:15 PM,69.4,67.5,93,30.08,7.0,Calm,Calm,-,N/A,,Clear,0,2013-08-20 04:15:00
11:35 PM,68.9,67.1,94,30.08,5.0,Calm,Calm,-,N/A,,Clear,0,2013-08-20 04:35:00
11:55 PM,68.5,66.9,95,30.08,5.0,Calm,Calm,-,N/A,,Clear,0,2013-08-20 04:55:00